Location: Newark
(46.2167°N, 5.8664°E)
Time: 02:10:29
(UTC+00:00)

N. Korean satellite - Pass Details

Date: 24 October 2019
Orbit: 456 x 506 km, 97.2° (Epoch: 22 November)

Event Time Altitude Azimuth Distance (km) Brightness Sun altitude
Rises 04:39:06 0° 28° (NNE) 2,575 10.6 -15.6°
Reaches altitude 10° 04:41:40 10° 47° (NE) 1,697 10.0 -15.1°
Maximum altitude 04:44:16 18° 93° (E) 1,265 9.8 -14.7°
Drops below altitude 10° 04:46:52 10° 138° (SE) 1,702 10.0 -14.2°
Sets 04:49:27 0° 158° (SSE) 2,587 10.6 -13.8°
